Weather History for Stanton, MN

Change the Weather History Date:

Thursday, November 17, 2011

  Actual Average (KLVN) Record (KLVN)
Temperature  
Mean Temperature 23 °F -  
Max Temperature 32 °F 41 °F 71 °F (1953)
Min Temperature 14 °F 25 °F -5 °F (1959)
Degree Days  
Heating Degree Days 42    
Moisture  
Dew Point 9 °F    
Average Humidity 55    
Maximum Humidity 79    
Minimum Humidity 33    
Precipitation  
Precipitation 0.00 in - - ()
Sea Level Pressure  
Sea Level Pressure 30.12 in    
Wind  
Wind Speed 7 mph (WSW)    
Max Wind Speed 13 mph    
Max Gust Speed 10 mph    
Visibility 10 miles    
Events      
Averages and records for this station are not official NWS values.
T = Trace of Precipitation, MM = Missing Value Source: NWS Daily Summary

Daily Weather History Graph

Daily Weather History Graph

Search for Another Location

Airport:

Trip Planner

Search our weather history database for the weather conditions in past years. The results will help you decide how hot, cold, wet, or windy it might be!

Date:

Astronomy

Nov. 17, 2011 Rise Set
Actual Time 7:10 AM CST 4:42 PM CST
Civil Twilight 6:39 AM CST 5:14 PM CST
Nautical Twilight 6:03 AM CST 5:49 PM CST
Astronomical Twilight 5:29 AM CST 6:24 PM CST
Moon 11:09 PM CST (11/17) 12:15 PM CST (11/17)
Length of Visible Light 10h 35m
Length of Day
9h 32m
Waning Gibbous, 59% of the Moon is Illuminated
Nov 17
Waning Gibbous
Nov 18
Last Quarter
Nov 25
New
Dec 2
First Quarter
Dec 10
Full

Hourly Weather History & Observations

Time (CST) Temp. Windchill Dew Point Humidity Pressure Visibility Wind Dir Wind Speed Gust Speed Precip Events Conditions
12:14 AM 21.2 °F 12.6 °F 10.8 °F 64% 30.12 in 10.0 mi West 6.9 mph - N/A   Clear
12:34 AM 20.8 °F 11.2 °F 10.8 °F 65% 30.12 in 10.0 mi West 8.1 mph - N/A   Clear
12:53 AM 20.8 °F 12.1 °F 11.1 °F 66% 30.12 in 10.0 mi West 6.9 mph - N/A   Clear
1:14 AM 20.3 °F 11.5 °F 11.1 °F 68% 30.13 in 10.0 mi West 6.9 mph - N/A   Clear
1:34 AM 20.1 °F 11.3 °F 11.1 °F 68% 30.13 in 10.0 mi WSW 6.9 mph - N/A   Clear
1:53 AM 19.6 °F 9.7 °F 11.1 °F 70% 30.13 in 10.0 mi West 8.1 mph - N/A   Clear
2:14 AM 19.2 °F 10.2 °F 10.9 °F 70% 30.13 in 10.0 mi WSW 6.9 mph - N/A   Clear
2:34 AM 19.4 °F 8.6 °F 11.1 °F 70% 30.13 in 10.0 mi West 9.2 mph - N/A   Clear
2:53 AM 19.0 °F 10.0 °F 10.8 °F 70% 30.13 in 10.0 mi West 6.9 mph - N/A   Clear
3:14 AM 18.3 °F 9.1 °F 10.6 °F 72% 30.14 in 10.0 mi West 6.9 mph - N/A   Clear
4:14 AM 17.6 °F 7.3 °F 10.2 °F 73% 30.13 in 10.0 mi West 8.1 mph - N/A   Clear
4:34 AM 17.2 °F 6.8 °F 10.2 °F 74% 30.14 in 10.0 mi West 8.1 mph - N/A   Clear
4:53 AM 16.7 °F 6.2 °F 10.2 °F 76% 30.15 in 10.0 mi West 8.1 mph - N/A   Clear
5:14 AM 16.9 °F 5.5 °F 10.2 °F 75% 30.15 in 10.0 mi West 9.2 mph - N/A   Clear
5:34 AM 16.7 °F 7.2 °F 10.2 °F 76% 30.15 in 10.0 mi West 6.9 mph - N/A   Clear
6:14 AM 16.2 °F 5.5 °F 9.9 °F 76% 30.15 in 10.0 mi West 8.1 mph - N/A   Clear
6:34 AM 15.3 °F 6.6 °F 9.5 °F 78% 30.15 in 10.0 mi West 5.8 mph - N/A   Clear
6:53 AM 14.7 °F 4.8 °F 9.0 °F 78% 30.16 in 10.0 mi West 6.9 mph - N/A   Clear
7:14 AM 14.7 °F 7.3 °F 9.1 °F 79% 30.17 in 10.0 mi West 4.6 mph - N/A   Clear
7:33 AM 14.5 °F 8.8 °F 9.1 °F 79% 30.16 in 10.0 mi West 3.5 mph - N/A   Clear
7:53 AM 15.4 °F 6.8 °F 9.9 °F 79% 30.17 in 10.0 mi West 5.8 mph - N/A   Clear
8:14 AM 16.5 °F 8.1 °F 10.4 °F 77% 30.18 in 10.0 mi West 5.8 mph - N/A   Clear
8:33 AM 18.1 °F 8.9 °F 11.1 °F 74% 30.18 in 10.0 mi West 6.9 mph - N/A   Clear
8:54 AM 19.4 °F 8.6 °F 11.7 °F 72% 30.17 in 10.0 mi West 9.2 mph - N/A   Clear
9:14 AM 20.3 °F 9.0 °F 12.0 °F 70% 30.18 in 10.0 mi West 10.4 mph - N/A   Clear
9:33 AM 22.3 °F 10.8 °F 12.7 °F 67% 30.18 in 10.0 mi West 11.5 mph - N/A   Clear
9:54 AM 23.2 °F 12.0 °F 12.7 °F 64% 30.18 in 10.0 mi West 11.5 mph - N/A   Clear
10:14 AM 24.8 °F 14.0 °F 12.4 °F 59% 30.19 in 10.0 mi WNW 11.5 mph - N/A   Clear
10:34 AM 25.7 °F 14.6 °F 12.4 °F 57% 30.18 in 10.0 mi West 12.7 mph - N/A   Clear
10:54 AM 26.6 °F 17.5 °F 12.0 °F 54% 30.18 in 10.0 mi WNW 9.2 mph - N/A   Clear
11:14 AM 27.1 °F 16.9 °F 11.3 °F 51% 30.17 in 10.0 mi WNW 11.5 mph - N/A   Clear
11:34 AM 27.7 °F 18.2 °F 11.3 °F 50% 30.16 in 10.0 mi West 10.4 mph - N/A   Clear
11:53 AM 28.6 °F 20.7 °F 10.6 °F 47% 30.15 in 10.0 mi West 8.1 mph - N/A   Clear
12:14 PM 29.3 °F 21.5 °F 7.7 °F 40% 30.14 in 10.0 mi WNW 8.1 mph - N/A   Clear
12:34 PM 29.7 °F 23.7 °F 7.5 °F 39% 30.13 in 10.0 mi WSW 5.8 mph 10.4 mph N/A   Clear
12:53 PM 30.6 °F 22.4 °F 7.3 °F 38% 30.13 in 10.0 mi West 9.2 mph - N/A   Clear
1:14 PM 30.9 °F 25.2 °F 6.3 °F 35% 30.12 in 10.0 mi West 5.8 mph - N/A   Clear
1:33 PM 31.1 °F 26.4 °F 7.0 °F 36% 30.12 in 10.0 mi West 4.6 mph - N/A   Clear
1:53 PM 31.6 °F 25.1 °F 6.1 °F 34% 30.12 in 10.0 mi West 6.9 mph - N/A   Clear
2:14 PM 31.1 °F 23.7 °F 6.6 °F 36% 30.10 in 10.0 mi WSW 8.1 mph - N/A   Clear
2:33 PM 32.0 °F 25.6 °F 6.4 °F 34% 30.09 in 10.0 mi WSW 6.9 mph - N/A   Clear
2:54 PM 32.0 °F 27.5 °F 6.4 °F 34% 30.08 in 10.0 mi SW 4.6 mph - N/A   Clear
3:14 PM 31.8 °F 27.3 °F 5.7 °F 33% 30.08 in 10.0 mi SW 4.6 mph - N/A   Clear
3:33 PM 31.6 °F 27.0 °F 5.9 °F 34% 30.08 in 10.0 mi SSW 4.6 mph - N/A   Clear
3:54 PM 31.8 °F 26.2 °F 5.9 °F 34% 30.06 in 10.0 mi SSW 5.8 mph - N/A   Clear
4:14 PM 30.9 °F - 6.4 °F 36% 30.06 in 10.0 mi Calm Calm - N/A   Clear
4:33 PM 30.6 °F 27.1 °F 6.6 °F 36% 30.06 in 10.0 mi South 3.5 mph - N/A   Clear
4:54 PM 29.3 °F 25.6 °F 7.2 °F 39% 30.05 in 10.0 mi South 3.5 mph - N/A   Clear
5:14 PM 28.9 °F 25.2 °F 7.3 °F 40% 30.04 in 10.0 mi SE 3.5 mph - N/A   Clear
5:33 PM 29.3 °F - 6.8 °F 39% 30.04 in 10.0 mi Calm Calm - N/A   Clear
5:54 PM 29.1 °F - 7.0 °F 39% 30.04 in 10.0 mi Calm Calm - N/A   Clear
6:14 PM 27.3 °F 23.4 °F 7.0 °F 42% 30.03 in 10.0 mi SE 3.5 mph - N/A   Clear
6:33 PM 28.9 °F 25.2 °F 6.6 °F 39% 30.03 in 10.0 mi SSE 3.5 mph - N/A   Clear
6:54 PM 29.3 °F 24.3 °F 6.1 °F 37% 30.02 in 10.0 mi SE 4.6 mph - N/A   Clear
7:34 PM 30.0 °F 24.1 °F 5.9 °F 36% 30.00 in 10.0 mi ESE 5.8 mph - N/A   Clear
7:53 PM 30.6 °F 23.8 °F 5.9 °F 35% 29.99 in 10.0 mi SE 6.9 mph - N/A   Clear
8:34 PM 31.1 °F 23.7 °F 6.4 °F 35% 29.98 in 10.0 mi SE 8.1 mph - N/A   Clear
8:53 PM 31.3 °F 23.3 °F 6.8 °F 36% 29.96 in 10.0 mi SE 9.2 mph - N/A   Clear
9:34 PM 31.6 °F 22.1 °F 8.4 °F 38% 29.94 in 10.0 mi SSE 12.7 mph 17.3 mph N/A   Clear
9:53 PM 32.0 °F 23.6 °F 9.1 °F 38% 29.93 in 10.0 mi SE 10.4 mph - N/A   Scattered Clouds
10:34 PM 33.1 °F 23.0 °F 11.1 °F 40% 29.89 in 10.0 mi SSE 15.0 mph 23.0 mph N/A   Clear
10:53 PM 34.0 °F 24.2 °F 12.2 °F 41% 29.86 in 10.0 mi SE 15.0 mph 24.2 mph N/A   Clear
11:14 PM 34.9 °F 23.3 °F 13.6 °F 42% 29.84 in 10.0 mi SSE 21.9 mph 29.9 mph N/A   Clear
11:34 PM 35.6 °F 26.2 °F 14.5 °F 42% 29.83 in 10.0 mi SSE 15.0 mph 24.2 mph N/A   Scattered Clouds
11:53 PM 34.9 °F 24.6 °F 14.9 °F 44% 29.82 in 10.0 mi SSE 17.3 mph 21.9 mph N/A   Clear